Regional Weather Roundup
Issued by NWS

Home | Current Version | Previous Version | Text Only | Print | Product List | Glossary On
Versions: 1 2 3 4 5 6 7 8 9 10 11 12 13 14 15 16 17 18 19 20 21 22 23 24 25 26 27 28 29 30 31 32 33 34 35 36 37 38 39 40 41 42 43 44 45 46 47 48 49 50
000
ASUS43 KIND 231009
RWRIN

WEATHER ROUNDUP FOR INDIANA
NATIONAL WEATHER SERVICE INDIANAPOLIS IN
600 AM EDT SUN JUL 23 2017

NOTE: "FAIR" INDICATES FEW OR NO CLOUDS BELOW 12,000 FEET WITH NO
SIGNIFICANT WEATHER AND/OR OBSTRUCTIONS TO VISIBILITY.

* - STATION DOES NOT REPORT WEATHER SUCH AS PRECIPITATION OR FOG.

+ - STATION NOT QUALITY CONTROLLED BY THE NATIONAL WEATHER SERVICE.
    USE DATA WITH CAUTION...ESPECIALLY DEWPOINT AND RELATIVE
    HUMIDITY OBSERVATIONS.

INZ001>003-010>013-019-020-231100-
NORTHWEST INDIANA

CITY           SKY/WX    TMP DP  RH WIND       PRES   REMARKS
GARY /AIRPORT/ PTCLDY    72  70  94 CALM      29.79S
KNOX *+        CLOUDY    70  70 100 CALM      29.80S
LA PORTE +     CLOUDY    69  68  98 CALM      29.81S
MICHIGAN CITY+ PTCLDY    68  68 100 CALM      29.80S
MONTICELLO +   CLOUDY    73  71  95 CALM      29.79R
RENSSELAER +   CLOUDY    73  72  94 CALM      29.80S
VALPARAISO     MOCLDY    72  70  93 CALM      29.80S

$$

LMZ046-743>745-231100-
SOUTHERN LAKE MICHIGAN

STATION/POSITION TIME  TEMP    WIND        PRES    WAVE
                       AIR SEA DIR/SP/G            HT
                 (UTC) (F)     (DEG/KT/KT) (MB)    (FT)
BURNS HARBOR     1003   73     190/  3/  4 1009.5
MICHIGAN CITY    0940   72     140/  2/  3   N/A
5NW MICH CITY    1000   73 75  160/  4/  4   N/A     0

$$

INZ004-005-014>016-021>024-231100-
NORTH CENTRAL INDIANA

CITY           SKY/WX    TMP DP  RH WIND       PRES   REMARKS
GOSHEN         MOCLDY    69  66  90 CALM      29.80S FOG
LOGANSPORT +   CLOUDY    73  72  94 CALM      29.80S
PERU/GRISSOM   CLOUDY    73  73 100 CALM      29.78S
ROCHESTER +    MOCLDY    73  73 100 N3        29.81R
SOUTH BEND     MOCLDY    70  69  97 CALM      29.81R
WARSAW +       MOCLDY    70  70 100 CALM      29.81S FOG

$$

INZ006>009-017-018-025>027-231100-
NORTHEAST INDIANA

CITY           SKY/WX    TMP DP  RH WIND       PRES   REMARKS
AUBURN +       PTCLDY    66  64  94 CALM      29.81S FOG
FORT WAYNE     CLOUDY    72  69  90 CALM      29.81S
HUNTINGTON +   CLOUDY    70  69  96 CALM      29.80S
KENDALLVILLE + FOG       65  65 100 CALM      29.81F VSB 1/4

$$

INZ028-029-035-036-043>045-051>053-231100-
WEST CENTRAL INDIANA

CITY           SKY/WX    TMP DP  RH WIND       PRES   REMARKS
GREENCASTLE +  CLOUDY    68  68 100 CALM      29.80F
LAFAYETTE      CLOUDY    73  73 100 CALM      29.78R
TERRE HAUTE    CLOUDY    70  68  93 CALM      29.78F

$$

INZ030>032-037>040-046>048-054>057-064-065-231100-
CENTRAL INDIANA

CITY           SKY/WX    TMP DP  RH WIND       PRES   REMARKS
CP ATTERBURY + CLOUDY    70  68  94 S7        29.82R
FRANKFORT +    CLOUDY    75  73  92 CALM      29.82R
GREENWOOD *+   CLOUDY   N/A N/A N/A S5        29.80S
INDIANAPOLIS   MOCLDY    71  68  90 SW7       29.78F
-EAGLE CREEK   PTCLDY    72  67  84 VRB3      29.79F
KOKOMO +       CLOUDY    73  72  96 CALM      29.81R
MARION +       CLOUDY    73  72  94 CALM      29.80S
MT COMFORT *+  MOCLDY    72  70  94 CALM      29.81S
SHELBYVILLE    CLOUDY    74  69  85 S6        29.79F
ZIONSVILLE +   PTCLDY    71  69  93 CALM      29.80R

$$

INZ033-034-041-042-049-050-058-059-231100-
EAST CENTRAL INDIANA

CITY           SKY/WX    TMP DP  RH WIND       PRES   REMARKS
MUNCIE         CLOUDY    77  72  84 S5        29.81R
RICHMOND +     CLOUDY    72  72 100 SW5       29.84S

$$

INZ060-061-067>069-081>083-085>088-231100-
SOUTHWEST INDIANA

CITY           SKY/WX    TMP DP  RH WIND       PRES   REMARKS
EVANSVILLE     TSTM      75  72  90 SE12      29.81F FOG
HUNTINGBURG *+ TSTM      71  70  96 SE8       29.85R

$$

INZ062-063-066-070>080-084-089>092-231100-
SOUTH CENTRAL AND SOUTHEAST INDIANA

CITY           SKY/WX    TMP DP  RH WIND       PRES   REMARKS
BEDFORD +      CLOUDY    72  66  83 S13G21    29.83R THUNDER
BLOOMINGTON    CLOUDY    73  68  84 S9        29.81R
MADISON *+     CLOUDY    70  66  88 SE5       29.87F
NORTH VERNON + CLOUDY    68  68 100 S9        29.85S
SEYMOUR +      CLOUDY    72  70  94 S5        29.84R

$$





USA.gov is the U.S. government's official web portal to all federal, state and local government web resources and services.